Regional Weather Roundup
Issued by NWS Kansas City/Pleasant Hill, MO

Home | Current Version | Previous Version | Text Only | Print | Product List | Glossary On
Versions: 1 2 3 4 5 6 7 8 9 10 11 12 13 14 15 16 17 18 19 20 21 22 23 24 25 26 27 28 29 30 31 32 33 34 35 36 37 38 39 40 41 42 43 44 45 46 47 48 49 50
000
ASUS43 KEAX 140711
RWREAX

WEATHER ROUNDUP FOR EASTERN KANSAS AND NORTHWEST MISSOURI
NATIONAL WEATHER SERVICE KANSAS CITY/PLEASANT HILL MO
200 AM CDT MON JUL 14 2014

KSZ040-057-103>105-MOZ028-029-037-043-140800-
...KANSAS CITY METROPOLITAN AREA...

CITY           SKY/WX    TMP DP  RH WIND       PRES   REMARKS
K.C. INTL      CLEAR     73  67  81 SW5       29.98F
K.C. DOWNTOWN  CLEAR     75  70  84 SW3       29.97F
LEES SUMMIT    CLEAR     71  68  90 SW3       29.99S
OLATHE - IXD   CLEAR     71  68  90 CALM      30.00S
OLATHE - OJC   CLEAR     69  67  93 S3        29.99S
LAWRENCE       CLEAR     68  66  93 CALM      29.99S

$$

MOZ001>008-011>017-020>025-030>033-038>040-044>046-053-054-140800-
...NORTHERN AND CENTRAL MISSOURI...

CITY           SKY/WX    TMP DP  RH WIND       PRES   REMARKS
ST. JOSEPH     CLEAR     72  71  97 CALM      29.97F
MOSBY          SUNNY     70  70 100 CALM      29.97F
WHITEMAN AFB   PTCLDY    70  66  88 SW2       29.97S FOG
CLINTON        CLEAR     68  68 100 CALM      29.98F FOG
SEDALIA        CLEAR     71  70  96 W3        29.98S
WARSAW         NOT AVBL
MARSHALL         N/A     72  72 100 W3        29.97F FOG
CHILLICOTHE      N/A     71  69  93 CALM      29.97F
MOBERLY        FOG       72  68  88 W3        29.96F VSB 3/4
KIRKSVILLE     FOG       67  65  93 W3        29.95F VSB 1/2

$$

MOZ041-047>049-056>058-063>065-088>090-097-140800-
...EASTERN AND SOUTHERN MISSOURI...

CITY           SKY/WX    TMP DP  RH WIND       PRES   REMARKS
ST. LOUIS INTL CLOUDY    77  74  90 W3        29.94F
SPIRIT OF STL  CLOUDY    74  71  91 CALM      29.93S
COLUMBIA       FOG       71  71 100 W3        29.97F VSB 1/4
JEFFERSON CITY CLOUDY    73  72  96 CALM      29.96S
MEXICO         CLEAR    N/A N/A N/A CALM      29.96S
HANNIBAL       MOCLDY    72  70  94 SW5       29.94F
ROLLA          MOCLDY    69  68  96 SW5       29.96R
LEBANON        CLOUDY    72  70  94 CALM      29.99F THUNDER
OSAGE BEACH    MOCLDY    72  68  88 CALM      29.98R
SPRINGFIELD    TSTM      74  72  93 W6        30.00R FOG
BRANSON        PTCLDY    75  70  83 CALM      30.00S
NEVADA         PTCLDY    70  70 100 NW3       30.00F
JOPLIN         CLOUDY    76  71  85 N6        29.98F
WEST PLAINS    MOCLDY    72  69  90 CALM      29.99S

$$

IAZ060-094-KSZ022-034>040-054-083-096-NEZ052-066-093-140800-
...KANSAS...SOUTHEAST NEBRASKA AND IOWA...

CITY           SKY/WX    TMP DP  RH WIND       PRES   REMARKS
TOPEKA         CLEAR     72  69  90 CALM      29.99F
MANHATTAN      CLEAR     69  66  90 CALM      30.00F
EMPORIA        PTCLDY    69  65  86 CALM      30.01F
CHANUTE        CLEAR     74  70  87 N3        30.00F
WICHITA        MOCLDY    75  69  81 NW5       30.02F
OMAHA          PTCLDY    72  67  84 NW9       29.97S
LINCOLN        CLEAR     72  65  78 NW5       29.99F
FALLS CITY     CLEAR     69  68  96 CALM      29.95F
LAMONI         CLEAR     72  65  78 SW3       29.95F
DES MOINES     PTCLDY    71  66  84 SW3       29.92F

$$



USA.gov is the U.S. government's official web portal to all federal, state and local government web resources and services.